Wind_Speed
17 16 15 14 14 14 14 16 17 17 16 15 13 12 13 15 15 14 13 12 10 8 7 6 6 6 6 5 4 4 3 3 2 2 2 2 2 2 1 2 3 5 7 8 10 10 11 10 11 13 15 16 18 19 21 21 22 23 22 22 22 23 25 26 25 29 31 31 32 34 36 38 39 39 40 41 42 41 42 41 40 39 37 35 34
15 14 14 14 15 15 16 17 17 17 16 15 14 15 16 16 15 14 13 11 9 8 7 7 7 7 7 7 6 5 4 3 2 1 2 2 1 2 1 2 4 6 8 10 11 12 11 11 13 16 18 19 22 23 23 24 24 24 24 23 22 23 24 25 26 29 32 33 33 35 36 37 38 39 40 41 42 43 44 43 43 42 41 40 38
14 14 15 17 17 17 18 17 17 16 16 15 16 17 17 16 15 14 12 11 10 9 9 8 8 8 7 7 7 6 4 3 2 1 1 1 0 2 2 2 4 6 9 12 13 14 13 13 16 19 21 22 23 24 25 26 26 25 25 23 22 23 23 24 25 28 31 34 34 36 37 38 38 38 39 39 40 42 43 44 44 43 43 43 41
16 16 18 19 18 18 18 17 16 16 15 16 17 18 18 16 15 14 13 11 10 10 10 9 9 8 7 7 6 6 5 4 3 1 0 0 1 3 3 3 4 6 10 13 15 16 15 16 19 21 22 24 24 25 26 27 27 26 25 24 23 24 24 24 25 27 31 34 35 36 37 39 39 39 39 39 40 41 42 44 45 45 45 44 44
18 18 19 19 19 19 18 17 16 16 17 18 19 19 18 17 16 14 13 11 10 11 10 9 9 8 7 7 6 6 5 4 3 2 2 2 2 3 3 3 4 6 9 12 16 17 15 17 21 22 24 25 25 26 28 28 27 25 25 25 25 26 25 25 25 27 30 34 36 37 38 39 40 41 40 41 42 43 42 44 45 46 47 47 47
19 19 19 19 20 20 19 18 17 17 19 19 19 19 18 17 16 15 12 11 11 11 10 9 8 7 7 7 6 5 5 4 3 3 2 2 3 3 3 4 4 5 8 10 14 16 15 17 21 23 24 26 27 28 29 28 26 24 25 26 27 28 27 26 26 27 30 33 36 38 39 40 41 42 41 41 42 43 44 45 46 46 47 49 50
21 19 19 20 21 22 21 19 19 19 20 20 20 19 18 17 16 14 12 11 11 11 9 8 8 8 7 7 7 6 5 4 4 3 3 3 2 3 5 5 3 5 7 8 12 15 15 17 20 22 23 26 28 29 29 28 25 24 25 27 28 30 30 28 27 29 31 34 37 39 40 41 42 42 43 42 42 42 43 46 49 48 47 48 50
22 21 21 22 23 22 22 21 20 21 21 21 20 20 19 17 16 14 12 12 12 10 9 8 8 8 8 7 7 6 5 5 4 4 4 3 3 4 6 6 3 5 5 7 10 13 15 16 19 21 22 25 28 29 29 27 25 24 26 28 29 30 31 30 29 31 33 36 38 40 41 42 42 43 44 44 44 44 44 46 49 49 50 50 50
24 23 23 24 24 23 22 22 22 23 22 21 20 19 19 18 16 15 13 12 12 10 9 8 8 8 8 8 7 6 6 5 5 4 4 4 4 5 6 5 3 4 5 6 9 13 14 15 18 19 21 24 27 28 27 24 23 25 27 28 29 31 31 31 31 33 35 37 39 41 42 43 43 44 45 44 44 46 47 47 49 50 51 52 51
25 25 25 25 25 24 24 24 24 24 23 22 21 20 19 19 17 15 14 13 12 10 9 9 8 8 8 8 7 7 6 6 6 5 5 5 5 5 4 5 4 5 5 5 7 11 12 13 16 17 20 24 27 26 24 21 22 23 25 27 28 30 31 32 32 33 35 38 39 41 42 43 43 43 45 45 45 47 48 48 50 52 51 52 53
25 25 25 25 26 26 25 25 25 24 24 22 21 20 19 19 18 16 14 14 12 11 10 10 9 9 8 8 8 8 7 7 6 6 5 6 5 4 4 3 2 2 3 3 5 7 9 12 14 17 21 24 24 22 22 22 22 22 23 25 26 28 30 32 33 34 35 37 39 40 42 43 43 43 44 46 47 48 49 49 49 51 49 49 51
25 25 25 26 27 27 26 26 26 25 25 23 21 20 19 19 18 16 15 14 13 12 11 10 10 9 9 8 8 8 8 8 7 6 5 4 3 3 3 3 2 2 2 3 3 4 8 11 14 17 20 21 20 21 22 22 23 24 24 25 25 26 28 29 30 32 33 36 38 39 40 42 43 43 44 47 49 50 50 50 48 48 48 47 47
26 26 27 27 28 27 27 28 27 26 26 24 22 20 19 19 17 16 15 15 13 12 11 10 10 10 9 8 8 9 8 8 8 6 5 3 1 1 2 3 3 3 3 3 3 2 6 11 14 15 17 18 19 21 22 23 25 25 25 26 26 28 29 28 26 28 31 34 38 38 38 39 41 42 44 46 49 51 51 51 50 49 48 47 46
27 27 28 28 28 28 29 29 28 27 26 24 22 21 21 20 18 16 15 15 14 13 12 11 10 10 9 8 8 8 8 8 8 7 6 4 3 2 3 4 5 5 5 5 4 3 6 11 12 13 15 17 19 21 23 25 26 26 27 27 28 30 31 29 28 29 32 34 36 36 35 35 38 41 44 45 47 49 50 52 52 50 49 47 46
28 28 29 29 29 29 30 29 28 27 25 24 23 22 21 20 19 17 16 16 14 13 12 11 10 10 9 8 8 8 8 8 8 7 6 5 4 4 3 3 5 6 6 6 5 6 9 10 11 13 15 18 20 22 23 25 27 28 28 28 29 32 32 30 30 32 34 33 32 32 33 34 37 40 43 46 47 48 48 48 48 48 48 48 46
28 28 29 29 30 30 30 29 28 27 26 24 23 23 22 21 19 17 17 17 15 13 12 11 10 10 10 9 8 7 8 8 7 7 6 5 5 5 4 2 3 5 6 6 7 8 9 9 11 14 16 18 21 22 23 25 28 29 29 28 30 33 33 31 31 32 32 30 29 30 32 34 37 40 43 46 47 48 48 47 46 45 46 48 46
29 29 30 30 30 30 30 29 28 27 26 25 24 23 22 21 20 18 16 17 16 14 13 12 10 10 10 10 9 8 8 8 8 8 7 6 5 5 4 3 2 3 5 6 7 6 7 9 12 15 16 17 21 23 24 25 27 28 29 30 32 34 35 34 34 33 31 28 28 30 33 36 39 41 44 46 47 48 48 48 47 45 44 46 45
29 30 31 31 31 31 30 29 28 28 27 25 24 23 22 21 20 18 16 16 16 16 14 13 12 11 11 11 10 10 10 9 9 9 8 7 6 5 4 4 3 2 3 3 3 3 7 10 12 14 15 16 20 24 26 25 25 27 29 31 33 35 36 37 37 35 32 29 30 32 35 38 40 43 45 47 48 47 47 48 47 44 44 44 43
30 31 31 31 31 30 29 29 28 27 26 25 24 23 22 21 19 18 16 16 17 17 16 14 13 12 12 11 11 11 11 11 10 10 10 9 8 7 6 5 4 2 2 2 2 4 7 9 11 13 15 16 19 25 26 25 25 27 28 31 33 35 36 37 37 36 33 33 34 36 38 40 42 45 48 49 49 48 46 46 45 43 43 43 40
31 32 31 31 31 30 29 29 28 27 25 24 24 23 22 21 20 19 18 17 17 17 16 14 12 11 11 10 11 11 11 12 11 11 11 11 10 9 7 6 6 6 6 6 5 6 7 10 11 13 15 16 20 25 25 24 25 27 28 30 32 33 35 37 36 34 33 34 36 38 40 43 45 47 50 52 51 50 47 45 43 41 41 41 38
32 32 32 32 31 30 29 28 27 26 25 25 25 23 22 22 21 20 20 19 18 16 14 13 11 9 9 9 9 10 11 11 11 11 11 12 12 10 7 7 8 8 8 7 7 8 9 11 13 14 15 17 21 25 25 24 25 26 28 30 31 32 34 35 34 33 33 34 37 39 41 44 47 49 52 53 52 51 49 46 42 41 40 38 36
32 33 32 32 31 30 29 28 26 26 26 26 25 24 23 22 22 21 20 19 17 15 13 12 9 7 7 6 6 7 9 10 10 11 12 12 12 9 7 7 8 9 8 8 8 9 11 12 13 14 15 18 21 24 25 24 24 26 28 29 31 33 34 34 33 33 34 35 37 40 43 46 49 50 52 54 53 52 51 47 44 42 39 33 29
33 33 32 32 31 30 29 27 26 26 27 26 25 24 24 23 22 21 20 18 16 14 13 10 8 6 4 4 3 5 6 8 9 11 11 12 11 9 6 7 7 8 8 9 10 11 11 13 13 14 16 18 22 24 25 24 24 26 28 29 31 34 35 34 34 34 33 35 38 41 44 47 49 50 52 54 54 53 52 49 46 44 41 33 27
34 34 33 32 31 30 28 28 27 27 27 27 26 25 24 23 21 19 16 15 14 14 12 10 8 5 3 1 1 3 4 6 8 9 10 11 10 8 7 6 7 8 8 9 9 10 11 13 13 14 16 18 21 24 24 23 24 26 28 29 31 34 35 35 34 33 33 35 38 41 45 48 49 50 52 53 53 53 52 50 47 46 43 38 33
36 35 34 33 32 30 29 28 27 28 28 28 27 27 25 22 20 17 14 14 13 13 11 10 8 5 3 2 2 2 3 4 6 7 9 9 8 7 7 7 7 7 7 7 8 9 10 12 13 14 15 18 21 23 23 23 24 25 27 30 32 34 36 35 33 33 32 35 38 41 44 47 49 50 51 52 53 54 54 53 50 48 46 43 38
37 36 35 33 32 31 30 29 28 29 28 28 28 27 24 21 20 18 17 15 13 11 10 9 8 6 5 4 4 4 3 3 4 6 7 7 6 6 6 7 8 8 8 8 8 8 9 11 12 15 16 18 21 23 23 22 22 24 26 29 31 34 36 35 34 32 32 34 38 40 43 46 49 50 51 53 54 55 55 54 53 52 51 48 44
37 36 35 34 32 32 31 30 29 29 29 29 29 26 23 21 21 20 19 17 14 12 11 10 9 8 7 6 6 5 4 3 4 5 6 5 4 4 4 5 6 8 8 9 9 9 9 11 13 16 17 18 21 23 22 20 21 23 25 28 30 33 35 35 33 29 29 32 36 39 41 45 48 51 52 54 55 55 55 55 53 53 52 51 49
37 37 36 34 33 33 32 31 30 30 30 31 29 26 25 24 22 20 18 16 15 14 13 11 10 10 9 8 7 5 5 5 5 6 6 5 4 3 3 3 4 6 7 9 11 11 11 11 13 17 19 21 23 25 23 21 21 23 24 26 28 31 33 35 33 28 27 31 34 37 40 44 47 51 53 54 55 55 55 56 54 53 53 52 51
37 37 36 35 34 34 32 31 30 30 30 30 28 26 26 24 21 18 16 15 14 13 12 11 11 11 10 9 8 7 6 6 6 6 5 4 4 4 3 2 3 5 7 9 11 13 13 13 14 18 21 23 26 27 26 24 22 23 24 25 27 29 32 35 35 31 28 30 34 37 40 43 46 49 52 54 55 55 55 56 55 54 53 53 52
38 37 36 36 35 34 33 31 30 30 30 29 28 27 25 23 19 17 15 14 13 12 11 10 10 10 10 9 9 9 8 7 6 6 5 4 4 4 4 4 3 4 6 8 10 13 15 16 16 19 22 24 26 28 28 27 24 24 25 26 27 29 31 34 35 32 29 29 32 35 38 41 44 46 49 52 55 56 56 56 55 54 53 52 52
39 38 37 37 36 35 33 32 31 30 30 29 29 28 26 22 19 17 15 15 14 13 13 12 11 11 10 10 10 10 9 8 7 5 5 5 5 4 4 5 4 4 6 7 9 11 15 16 17 19 22 24 26 28 29 28 25 24 25 26 26 28 30 32 34 34 31 28 30 33 36 39 42 44 47 50 53 55 57 56 56 56 54 52 51
40 39 39 38 36 34 32 32 31 31 31 30 30 28 25 22 20 19 18 17 15 15 14 13 13 13 12 12 11 11 10 8 6 6 5 5 5 5 4 5 5 5 6 8 9 10 13 15 16 18 22 24 25 27 28 28 25 23 24 26 27 28 30 31 32 33 31 28 28 31 34 37 39 42 45 47 50 53 56 57 57 57 56 54 51
39 39 39 38 35 33 32 32 32 32 32 33 32 28 25 24 22 21 20 18 16 16 16 16 16 15 14 12 11 10 8 6 5 5 5 5 5 5 4 5 6 6 6 8 10 11 12 14 15 18 21 24 25 27 28 28 25 23 23 25 27 28 29 29 30 31 31 29 26 27 31 34 37 40 43 45 47 51 53 55 56 55 55 55 53
39 38 37 36 35 33 32 32 33 34 34 34 32 28 26 24 22 21 20 18 15 15 15 15 15 14 12 10 8 7 6 5 3 3 4 5 5 5 5 4 5 6 7 8 10 12 12 13 14 16 21 23 25 26 27 27 26 23 21 23 25 27 28 28 29 30 31 29 26 25 27 31 34 38 41 43 45 48 50 52 53 53 54 54 53
38 36 36 34 33 32 32 33 34 35 34 33 31 27 24 22 21 20 18 16 13 12 11 11 11 11 10 9 7 5 5 4 4 4 5 5 5 5 6 5 5 6 6 8 10 11 12 13 14 16 20 23 25 26 26 26 26 23 21 21 24 26 28 29 29 29 30 30 28 25 25 27 31 34 37 39 42 44 46 48 50 51 51 51 51
37 36 35 33 31 30 32 34 35 35 34 32 28 24 21 20 18 17 16 15 12 10 9 8 9 9 10 9 7 6 5 5 6 6 6 6 6 6 7 8 8 8 8 8 10 11 12 13 14 16 19 23 24 25 25 25 24 24 22 21 22 25 27 29 29 28 28 29 28 25 23 24 27 31 34 36 39 41 42 44 46 47 48 49 49
36 35 33 31 29 30 32 34 35 33 31 28 25 22 20 19 16 14 14 14 13 11 10 10 10 11 11 10 8 6 6 7 9 9 9 8 8 8 9 11 11 11 11 10 10 11 12 14 15 16 19 22 24 23 23 23 23 23 22 21 20 22 25 27 28 28 27 27 28 26 24 23 24 27 30 33 35 38 39 40 42 44 45 46 47
34 33 31 29 29 29 31 32 32 31 29 25 23 20 19 18 16 15 15 13 12 12 12 11 11 12 12 9 7 7 7 9 12 12 11 10 10 11 12 13 14 14 14 12 11 12 13 14 16 17 19 22 23 23 22 22 22 23 23 21 20 20 22 24 27 27 26 26 26 26 25 22 21 23 26 29 32 34 35 37 38 41 43 44 44
33 32 30 28 28 29 29 29 30 30 28 25 23 22 20 18 17 16 16 14 13 14 13 12 12 12 11 10 9 10 12 13 15 14 12 12 13 13 14 15 16 16 16 14 13 13 14 15 17 18 19 21 23 23 22 22 22 23 23 22 20 20 21 22 25 26 26 25 25 25 25 23 21 20 22 25 28 31 32 33 34 36 39 41 42
32 31 29 28 28 28 28 28 30 30 29 26 25 23 22 20 19 18 16 15 15 15 15 14 14 14 13 12 12 13 15 15 14 14 13 13 14 14 15 16 17 17 17 15 14 13 15 16 17 18 20 21 23 22 20 20 22 23 23 22 21 21 21 22 23 25 25 25 24 24 24 23 22 20 20 21 24 27 28 30 31 32 34 36 38
31 31 29 28 28 28 28 29 30 30 29 27 26 25 23 22 20 19 18 18 17 17 17 17 16 15 14 13 13 14 15 15 14 15 15 15 15 15 16 17 18 18 18 16 14 14 15 17 18 19 20 21 21 19 17 17 20 22 23 23 22 22 22 22 22 22 24 24 23 23 23 23 22 21 19 19 20 22 24 27 29 29 30 32 34
31 30 30 29 28 28 29 30 30 29 27 27 27 27 25 22 21 21 21 20 19 19 18 17 17 16 16 15 15 16 17 17 16 17 17 16 16 16 16 17 17 17 17 15 13 14 15 17 18 19 19 18 17 16 15 16 18 21 21 22 24 25 25 24 23 22 22 23 23 22 22 22 21 20 18 17 18 19 21 23 26 27 28 29 30
31 30 30 29 28 28 29 29 29 28 27 25 25 26 25 23 22 22 21 21 20 20 20 19 17 16 16 16 17 19 20 20 19 19 18 18 18 18 18 18 17 16 15 14 13 14 16 16 17 18 17 15 15 15 16 16 17 19 20 20 23 26 27 27 26 25 23 22 23 22 21 21 20 20 18 16 16 17 18 20 22 25 26 26 27
31 31 31 29 28 28 27 27 28 29 28 26 23 23 24 24 23 23 23 22 21 20 20 20 20 19 19 19 20 21 21 21 20 20 20 20 19 19 18 16 15 15 15 15 15 15 16 17 17 17 17 15 14 15 16 17 18 19 19 20 22 24 26 27 27 27 25 24 23 22 21 20 19 19 18 17 16 16 17 17 18 20 23 25 25
31 31 31 29 28 27 26 25 26 28 29 26 24 23 24 24 25 25 24 24 24 24 23 23 22 22 22 21 21 21 21 20 20 19 19 18 17 16 15 15 15 15 15 15 15 16 17 17 18 18 17 17 16 17 18 19 19 20 21 21 21 22 23 25 26 26 26 26 24 23 22 21 20 19 18 18 17 16 16 16 16 16 19 22 24
31 31 32 30 29 28 26 25 25 27 28 28 27 25 25 25 24 24 23 23 24 26 26 26 26 25 23 21 20 20 20 21 21 21 20 19 18 17 16 16 16 16 17 16 16 16 17 18 18 18 18 18 18 19 19 19 20 20 21 22 22 21 22 23 24 24 24 25 25 24 22 21 20 19 18 18 17 16 16 16 15 13 14 17 20
30 31 33 32 30 28 27 26 26 27 27 27 28 27 26 25 24 24 23 22 22 22 24 25 25 25 24 23 23 23 23 23 23 23 22 22 21 20 19 19 19 19 19 19 18 18 18 19 19 18 18 18 19 20 20 20 20 21 21 22 22 22 21 21 22 23 22 23 24 24 23 22 21 20 19 18 17 17 17 16 15 13 11 12 15
31 32 32 32 31 30 27 27 27 27 25 25 27 28 27 26 25 24 24 23 23 22 22 23 23 24 24 25 25 24 24 23 22 22 21 21 20 19 19 19 19 20 21 21 20 20 20 20 20 19 19 19 20 20 21 22 22 22 22 23 23 23 22 22 21 21 21 21 22 23 23 23 22 21 19 19 18 18 17 17 15 13 11 10 10
31 31 30 30 31 30 27 25 25 25 23 22 23 26 27 28 28 28 27 25 24 24 23 24 25 26 27 26 24 22 21 21 21 21 21 20 19 19 18 18 17 18 19 20 21 22 22 21 21 20 20 20 21 21 21 22 22 23 23 23 22 22 23 23 22 21 20 20 20 21 22 23 22 21 20 19 19 18 18 18 16 13 11 10 8
29 29 29 28 28 28 26 25 24 24 22 20 21 22 23 25 27 28 29 29 29 28 28 28 28 28 27 25 23 22 22 22 22 22 22 22 21 21 21 20 19 19 19 19 20 21 22 23 23 22 22 21 21 21 21 21 22 22 22 22 22 22 23 23 23 22 21 20 20 20 21 22 22 21 20 20 19 18 18 18 17 14 11 10 8
27 27 27 27 27 26 26 26 26 25 24 23 22 21 21 20 20 21 22 24 26 27 27 27 27 26 25 24 23 24 24 24 24 24 24 24 23 23 23 23 23 23 23 22 22 22 22 23 23 23 23 22 21 21 21 22 22 22 22 21 21 21 22 23 24 23 23 22 21 20 20 20 21 21 21 20 20 19 18 18 17 15 12 10 9
Wind_Direction
213 220 229 234 231 217 202 197 200 203 206 209 208 198 184 176 174 177 180 184 186 188 186 178 173 167 163 163 163 173 186 189 194 205 210 196 142 118 78 18 13 16 17 16 18 23 35 46 43 33 25 18 16 15 13 13 10 10 8 5 4 3 2 3 353 345 348 351 350 350 350 348 346 346 344 341 340 339 338 337 335 332 329 326 323
217 223 228 222 211 197 189 189 192 193 191 190 188 182 177 176 179 184 187 187 186 188 187 179 173 168 165 164 166 174 185 191 204 230 244 240 160 121 90 26 12 12 19 25 26 30 43 49 38 29 23 18 16 12 10 11 9 8 7 2 0 2 2 1 356 347 344 348 351 350 350 349 346 346 346 342 340 338 336 334 334 332 331 329 326
221 217 212 203 190 180 178 179 179 178 177 178 178 176 177 180 186 192 192 190 187 184 183 179 175 171 168 168 170 173 177 180 179 212 259 259 124 113 97 33 9 15 30 35 33 34 43 42 30 24 19 15 13 10 8 8 8 7 5 1 357 358 1 1 356 348 342 343 347 348 348 347 344 343 343 340 338 337 334 332 332 331 330 329 328
214 204 198 190 179 174 175 176 177 178 178 177 175 176 180 185 190 195 194 190 186 182 180 178 175 172 168 168 171 172 175 174 168 165 211 187 76 87 75 26 10 25 36 36 30 32 39 34 25 21 16 11 9 7 6 6 6 7 7 5 1 357 358 359 356 351 344 341 344 346 345 344 342 341 340 337 336 335 334 332 330 329 328 327 326
205 200 196 185 176 175 178 181 185 185 181 176 175 178 182 187 191 195 195 188 181 181 180 177 174 171 169 167 169 173 173 169 164 154 147 134 98 88 60 23 19 28 33 28 22 25 31 25 20 17 12 7 6 5 5 5 5 8 9 8 5 1 358 356 354 352 346 342 342 344 345 342 339 339 339 336 333 333 333 332 329 326 325 325 324
201 199 194 183 180 183 185 191 193 188 180 176 177 180 184 189 192 193 194 187 182 183 182 177 173 172 172 168 165 168 167 161 159 155 149 139 121 96 66 53 37 24 26 20 13 17 22 18 16 14 8 4 3 3 4 5 5 7 8 8 6 2 358 354 352 350 348 345 342 342 343 341 338 337 338 335 332 331 331 330 327 324 323 323 322
200 195 191 186 188 190 193 198 196 188 182 179 180 182 185 190 193 193 190 184 185 187 182 178 176 172 170 165 161 163 163 159 158 155 154 148 137 97 81 79 42 12 16 10 5 10 16 16 14 10 5 1 1 3 4 4 4 6 8 7 4 0 357 354 352 350 347 345 342 341 339 338 336 334 335 334 331 329 329 327 326 325 323 321 319
198 192 191 193 196 198 199 199 192 187 183 180 180 181 185 189 193 193 188 181 185 187 181 179 176 171 166 161 159 158 153 155 156 153 151 145 131 99 89 87 46 11 8 359 360 6 10 12 10 6 2 360 360 2 3 2 4 7 8 5 1 358 357 354 352 350 348 344 342 340 337 335 335 333 333 334 331 329 328 326 324 324 323 320 317
195 193 196 201 203 202 197 191 187 185 184 182 181 181 184 189 194 196 188 181 184 184 178 175 171 168 164 157 154 148 142 148 148 141 141 137 127 109 96 89 51 8 350 349 0 4 4 4 3 2 359 357 357 0 3 6 9 7 4 1 358 355 354 354 353 350 347 344 341 339 336 333 333 333 332 332 330 327 327 325 321 321 322 319 315
196 197 201 204 201 196 190 187 185 185 185 185 184 183 185 190 195 195 186 181 182 181 176 170 165 163 158 150 144 138 138 141 136 129 129 131 131 124 113 99 64 11 340 342 354 357 357 356 357 356 352 352 356 0 4 9 10 5 0 358 356 353 352 352 352 350 346 343 340 339 335 332 332 333 330 329 329 326 325 324 321 320 321 317 314
200 199 200 198 193 189 188 187 187 186 186 187 186 186 188 192 194 190 183 180 179 176 172 166 160 155 147 141 137 133 133 129 121 118 119 126 137 143 144 135 105 14 343 349 346 343 348 349 347 346 347 353 1 6 8 9 7 2 359 358 355 353 353 351 350 349 345 340 338 337 334 331 332 332 329 329 329 326 324 323 320 319 318 314 312
203 201 198 194 191 190 190 190 188 188 189 189 189 189 191 193 192 187 182 180 175 171 169 162 152 143 138 135 130 123 118 111 106 105 107 118 143 162 172 185 214 268 328 358 343 336 344 343 339 341 351 3 9 8 6 4 2 359 356 355 353 352 352 351 348 345 342 338 336 335 333 331 331 331 331 330 328 326 324 322 320 317 314 310 308
203 201 196 193 192 192 193 192 190 190 191 191 191 192 193 194 194 189 182 177 172 168 165 156 145 135 130 126 119 111 105 99 96 93 89 92 104 239 235 239 263 274 295 329 344 345 335 333 337 349 3 11 10 5 1 357 357 355 353 352 351 349 348 347 344 341 338 337 334 332 333 332 330 331 332 332 329 327 325 322 320 317 313 310 307
203 199 196 194 194 193 193 194 193 192 192 193 192 193 194 195 196 192 183 178 173 166 160 153 142 133 126 119 112 107 103 97 92 87 80 75 60 353 293 268 272 278 286 307 323 321 321 333 349 6 14 11 7 3 358 354 352 349 347 347 346 346 347 345 341 338 336 336 334 331 333 335 334 333 335 335 331 327 324 322 321 319 314 311 310
201 199 196 195 194 193 193 194 194 193 193 194 193 192 194 197 197 193 185 181 176 165 157 152 142 132 122 112 107 104 99 94 90 85 78 71 59 34 2 292 267 274 286 298 307 318 332 355 17 22 17 12 8 4 357 352 349 345 343 343 343 346 348 345 341 338 337 338 336 333 335 340 341 340 341 340 334 329 326 324 324 321 316 314 312
199 197 195 195 194 193 194 194 195 195 194 194 193 192 194 197 197 193 185 182 178 168 157 150 140 129 118 109 104 99 95 93 89 84 76 64 52 39 22 353 269 264 281 298 314 328 348 22 34 24 15 10 7 4 357 351 348 347 345 345 345 346 347 344 342 341 340 339 337 337 340 345 346 346 346 344 338 334 332 328 327 325 318 314 314
199 197 197 196 195 194 195 196 196 196 195 194 194 193 193 194 195 192 187 181 176 169 158 146 136 126 117 111 105 97 93 90 84 76 69 57 43 31 17 9 330 270 277 297 318 341 17 37 30 17 10 5 4 3 357 350 348 349 349 348 347 346 345 344 344 344 343 340 338 340 344 348 350 350 349 347 344 341 335 330 330 328 319 316 316
200 200 199 197 195 195 196 197 198 197 196 195 193 192 190 191 191 189 185 176 167 163 158 147 135 127 119 111 102 92 84 79 73 67 62 53 42 29 15 10 6 313 275 290 322 27 49 41 29 16 6 1 1 0 356 351 350 352 352 349 347 345 343 343 345 345 344 342 343 345 349 352 354 353 351 349 348 346 340 334 332 329 322 320 320
201 201 199 196 195 195 196 198 199 198 196 194 192 191 189 188 186 182 178 171 161 156 154 146 135 126 118 106 93 81 71 65 59 53 50 43 32 24 20 20 33 60 109 123 104 82 60 42 32 19 7 0 358 357 355 355 355 354 352 348 346 344 342 343 346 346 343 344 347 350 353 357 356 354 353 352 351 349 345 340 337 332 327 326 324
202 200 198 195 194 196 197 199 200 199 197 193 191 191 189 184 181 177 173 167 159 152 148 143 134 124 113 99 84 71 59 51 46 42 40 34 23 21 27 38 54 72 89 98 91 70 51 39 30 20 9 3 359 356 356 358 357 353 350 348 346 342 341 344 348 347 344 345 349 352 357 359 358 356 356 354 352 351 349 347 344 339 334 330 327
200 197 195 194 194 196 198 199 200 199 196 193 191 190 188 183 180 176 170 165 159 154 150 146 137 123 109 94 77 63 50 40 35 32 31 28 22 22 35 48 58 67 73 75 67 50 38 32 26 18 10 3 359 357 357 357 356 353 350 348 345 342 344 348 351 349 348 348 351 355 360 1 358 357 357 355 353 352 353 352 350 349 344 337 332
197 194 193 193 195 196 198 199 200 197 195 193 192 189 186 183 181 176 170 166 162 158 154 149 139 122 107 91 71 57 44 33 27 24 24 24 21 24 41 53 57 63 64 61 55 42 32 26 20 14 8 2 359 358 356 355 354 353 351 348 346 346 350 353 353 353 353 352 354 359 2 2 359 357 357 357 356 356 356 355 355 357 355 349 344
194 192 193 194 196 197 199 200 200 197 195 194 192 189 185 182 180 176 171 168 166 160 153 149 145 133 113 90 65 49 36 25 19 17 17 18 18 22 40 51 51 53 53 50 45 36 28 22 15 8 3 360 358 357 355 353 353 353 351 350 350 351 355 357 357 358 357 356 358 1 3 3 0 357 357 359 360 359 359 358 359 2 3 2 4
193 192 194 196 197 199 200 200 200 198 196 193 191 187 183 181 179 176 172 173 173 165 156 154 158 155 141 99 20 26 24 13 9 10 11 11 13 21 35 44 46 46 45 42 37 27 20 15 11 5 0 356 356 356 354 352 352 352 352 352 354 356 358 360 2 2 0 0 2 3 5 6 4 360 359 1 2 1 1 1 3 6 8 10 13
193 194 196 197 198 200 199 200 200 198 195 193 189 186 183 181 179 176 172 172 172 166 161 164 168 171 186 241 285 326 355 357 357 1 3 2 7 22 35 44 51 50 44 39 30 19 12 10 6 2 357 353 355 356 354 351 352 352 352 354 356 359 1 3 5 4 3 4 4 4 6 8 8 6 5 6 6 4 4 5 7 10 14 16 19
194 196 197 198 199 200 199 199 199 197 194 192 190 189 187 182 177 173 171 169 168 166 166 170 177 189 211 243 265 288 315 333 348 354 352 351 2 23 35 47 57 56 47 37 27 15 12 10 4 1 358 354 353 355 354 352 351 352 353 354 358 1 3 5 7 6 5 6 7 6 7 9 11 13 12 12 11 8 7 7 9 11 15 17 18
196 197 198 199 199 200 199 198 196 195 194 191 191 192 189 180 175 174 174 175 176 176 179 184 192 205 224 245 259 277 295 306 331 341 336 332 349 12 27 48 61 60 50 38 26 16 13 12 4 359 358 355 353 355 356 354 353 353 354 355 359 2 5 7 9 9 8 8 9 9 10 12 14 15 16 15 14 12 11 10 11 12 14 16 17
197 198 198 199 199 199 199 198 196 195 194 192 193 193 187 180 179 180 180 183 186 186 188 194 204 216 232 247 261 279 294 298 308 316 314 315 325 335 351 24 47 49 41 33 25 16 9 6 1 358 357 357 356 356 358 357 356 356 356 356 358 3 5 6 10 12 11 12 12 11 12 14 16 16 17 17 16 15 15 14 14 15 16 17 18
199 199 199 199 199 198 199 199 198 196 194 193 194 192 186 183 185 186 186 189 193 196 200 205 214 229 245 259 270 284 295 294 290 291 294 302 307 301 300 325 15 30 23 18 16 11 6 3 359 357 357 358 357 356 356 357 356 357 359 358 359 3 5 6 8 10 11 13 15 14 13 15 16 16 17 18 18 18 18 17 17 17 18 19 21
198 199 199 199 199 199 199 200 200 198 194 192 190 188 184 184 186 189 192 195 198 207 217 223 229 240 254 268 276 281 284 281 277 277 281 291 299 291 281 290 331 13 12 6 6 4 3 2 358 354 355 357 355 354 354 355 355 356 359 1 2 4 5 6 8 9 8 11 16 16 14 15 16 15 16 17 18 19 19 19 19 20 20 21 21
198 199 200 200 200 201 202 202 201 199 194 191 188 185 183 183 186 192 199 204 207 215 224 231 236 243 255 271 278 275 272 269 269 271 275 283 295 297 285 288 312 345 356 355 356 357 358 359 355 351 352 353 353 353 353 353 354 356 358 1 4 6 5 6 7 8 6 8 14 17 17 16 16 15 15 17 18 19 20 21 22 22 22 23 23
200 200 201 201 202 203 205 204 202 198 193 190 188 186 186 187 190 195 202 207 211 219 227 233 238 245 257 268 270 265 260 259 260 266 273 281 296 305 299 293 302 316 330 339 346 351 354 353 351 349 349 349 350 352 352 351 354 357 359 0 3 6 6 5 7 8 7 6 10 15 16 16 16 16 15 16 17 19 20 21 23 24 24 25 26
203 202 202 202 203 205 206 205 201 197 192 190 189 189 191 192 194 197 202 206 212 220 230 237 243 249 257 260 257 249 242 243 253 264 275 285 294 305 306 296 294 299 310 325 335 342 347 348 346 345 345 345 347 350 350 350 351 356 1 2 3 4 5 5 5 8 9 8 9 13 15 16 16 17 16 16 17 18 19 21 23 24 25 26 27
205 206 206 205 206 207 207 205 201 197 194 193 192 193 195 197 200 202 205 209 215 223 230 236 240 244 243 241 239 231 222 229 253 276 290 296 296 299 303 298 293 293 300 313 324 331 338 341 340 339 341 342 344 347 348 348 349 353 0 4 4 3 3 3 5 8 10 9 9 11 14 16 17 17 17 17 17 17 18 20 22 24 26 27 28
207 209 210 210 209 209 208 204 201 199 197 197 197 198 199 201 205 210 213 216 218 219 222 225 226 225 222 221 225 223 222 240 267 288 303 308 302 299 303 303 302 302 302 306 312 320 329 334 334 334 336 339 342 345 346 346 347 350 356 2 4 4 3 3 4 7 9 9 9 10 12 14 16 17 17 18 17 18 18 18 20 24 27 28 29
208 210 211 211 212 212 207 204 203 202 201 201 201 201 201 205 212 215 216 214 210 205 209 213 211 210 214 220 226 229 236 256 272 283 297 306 307 311 318 318 313 310 311 310 310 315 324 328 327 329 333 336 341 344 345 344 344 347 351 357 0 2 3 3 2 4 6 8 9 10 10 12 15 16 18 19 19 19 19 19 19 22 26 29 30
210 211 211 212 214 213 208 204 204 204 204 204 203 203 205 209 212 209 206 205 205 205 209 211 210 215 223 230 237 245 253 260 266 273 283 291 298 312 324 326 321 315 313 313 314 316 319 322 324 325 328 333 339 343 343 342 342 344 348 353 355 358 1 2 1 2 4 6 8 9 10 11 13 15 17 18 19 20 21 21 21 22 25 29 32
213 214 214 215 217 214 208 206 205 205 205 204 204 207 211 212 208 204 204 208 211 214 215 217 220 226 233 239 245 253 258 258 261 268 278 285 291 301 314 321 321 317 313 310 310 313 315 318 322 323 324 328 335 340 341 339 340 343 347 351 352 354 358 0 0 1 3 4 6 8 9 9 11 14 16 17 18 19 20 22 22 22 24 28 31
214 216 217 217 217 213 209 206 205 204 205 205 205 209 214 214 210 209 212 215 219 220 222 228 233 236 241 245 247 255 261 261 263 271 281 286 288 293 304 313 316 317 313 307 303 306 309 313 319 322 321 324 330 336 338 338 339 342 347 352 353 352 355 358 359 0 2 3 4 6 8 9 10 12 14 16 17 18 20 22 23 23 23 26 30
211 215 216 216 216 213 209 206 203 203 205 208 209 212 216 218 218 218 220 223 226 227 231 240 244 244 245 247 251 261 266 265 266 274 282 287 287 291 299 306 311 314 313 305 297 298 303 308 315 320 321 323 329 333 337 340 343 345 349 354 356 354 354 355 357 358 0 2 3 4 6 8 9 10 12 14 17 19 20 21 23 23 22 24 28
209 213 214 215 217 215 209 204 203 204 208 212 214 216 218 221 223 225 227 229 232 236 241 249 252 250 249 251 258 266 269 268 271 277 283 286 287 290 296 302 306 311 312 304 293 291 297 304 312 318 321 326 330 333 336 342 347 350 352 356 359 358 355 353 353 355 358 0 2 3 4 5 7 9 11 12 14 17 19 20 22 23 23 22 25
208 212 214 215 216 213 208 205 204 205 208 212 216 219 221 223 226 230 231 233 235 240 246 253 256 256 255 256 259 263 267 271 276 279 281 283 286 289 294 298 303 309 310 301 290 288 292 300 311 319 323 327 331 332 334 340 348 353 357 1 4 4 360 355 352 352 354 357 0 2 3 4 5 7 9 10 11 14 17 19 21 22 23 22 22
206 211 214 214 210 206 206 207 207 208 210 213 216 219 221 223 228 232 233 234 237 242 249 254 257 256 255 255 258 262 266 270 273 274 277 281 285 288 292 296 303 307 304 294 289 288 289 296 309 319 323 326 328 330 331 335 342 348 353 358 2 4 2 360 357 352 350 353 357 359 1 2 2 3 5 7 8 9 13 17 21 23 23 21 21
205 211 213 211 205 203 206 210 213 214 214 215 217 220 222 225 229 232 234 236 238 242 247 252 254 254 254 256 259 263 266 269 271 275 279 283 286 288 291 293 298 301 296 290 288 286 285 292 306 316 320 322 324 326 326 327 330 335 340 345 351 355 356 358 358 356 352 350 352 355 358 360 0 360 1 2 3 3 6 11 18 24 24 22 20
204 209 209 207 206 209 212 214 215 216 216 217 220 223 225 229 233 235 237 240 241 242 245 249 252 254 256 258 261 264 267 271 274 278 283 286 288 290 292 292 292 292 292 292 291 286 284 292 303 310 313 315 316 319 322 323 323 326 330 335 341 345 347 349 353 355 354 351 349 350 353 356 357 357 356 357 358 358 360 4 10 17 22 23 21
205 208 206 206 209 213 215 217 218 218 219 221 223 225 227 231 236 239 242 244 244 245 247 249 252 255 258 260 262 264 268 271 274 279 283 286 287 289 291 292 290 288 288 290 291 289 287 292 299 307 310 311 311 312 315 318 320 321 324 328 333 336 338 340 345 349 352 351 349 348 348 351 353 353 352 351 352 352 354 0 5 8 13 19 22
207 208 206 207 210 213 218 221 222 221 223 226 227 228 230 233 236 240 243 246 248 249 250 251 252 255 257 260 263 265 269 272 275 278 281 284 286 287 288 288 287 285 284 286 287 287 288 291 295 302 307 309 308 307 308 311 314 316 317 321 325 328 328 331 337 342 346 348 348 347 346 346 348 349 348 347 346 345 348 355 2 3 1 6 16
205 207 210 213 214 216 220 224 224 223 227 231 232 233 235 236 237 239 242 245 249 252 254 254 254 255 259 264 268 269 270 272 274 276 279 281 284 286 286 287 287 285 283 283 282 282 284 288 292 297 302 304 304 303 304 306 309 310 312 315 320 321 321 322 326 333 339 343 344 344 344 343 343 344 344 344 343 340 340 344 353 1 358 352 0
203 207 212 215 216 217 222 226 224 223 227 233 236 237 239 241 242 244 245 247 249 252 255 257 258 259 264 268 271 271 271 272 273 275 277 279 281 283 283 285 286 285 283 281 280 279 280 283 287 293 297 298 298 300 304 308 309 309 310 313 316 317 317 317 318 322 328 334 338 339 340 341 341 340 340 340 340 340 337 335 338 349 355 349 345
203 208 212 214 217 220 225 227 225 224 229 234 236 238 241 243 246 249 250 250 251 253 254 256 259 262 265 268 269 270 273 275 276 278 280 281 281 281 280 280 280 281 280 280 280 280 279 280 283 287 290 292 295 299 305 309 310 309 310 312 313 313 313 313 314 314 317 322 329 333 335 336 338 338 337 336 336 336 335 333 331 335 342 345 340
209 213 215 218 221 224 227 230 230 230 233 236 238 240 242 245 249 253 254 254 255 256 257 259 261 263 266 268 270 272 274 276 278 280 282 282 282 282 280 280 279 279 279 279 280 281 280 280 280 281 283 287 292 297 301 303 306 308 310 311 310 309 310 311 312 312 310 311 316 322 327 330 333 334 334 334 332 330 329 330 329 328 329 332 333
Height
1537 1538 1538 1538 1538 1538 1538 1538 1539 1540 1542 1543 1544 1545 1547 1548 1548 1549 1549 1550 1551 1552 1553 1553 1554 1554 1554 1554 1554 1554 1554 1554 1554 1553 1553 1553 1552 1552 1552 1551 1551 1551 1551 1551 1550 1549 1548 1547 1546 1545 1543 1542 1540 1538 1536 1534 1532 1531 1528 1526 1524 1522 1519 1517 1513 1509 1507 1505 1502 1499 1496 1492 1488 1485 1481 1477 1474 1471 1469 1467 1464 1462 1459 1456 1454
1536 1537 1537 1537 1537 1537 1537 1538 1538 1540 1542 1543 1544 1545 1547 1548 1548 1549 1549 1550 1551 1552 1553 1554 1554 1554 1554 1554 1554 1554 1554 1554 1554 1554 1553 1553 1553 1552 1552 1552 1552 1551 1551 1551 1550 1549 1548 1547 1546 1544 1543 1541 1540 1538 1536 1534 1532 1530 1528 1526 1524 1522 1519 1516 1513 1508 1504 1502 1500 1497 1494 1491 1487 1484 1481 1476 1472 1469 1465 1463 1461 1458 1456 1453 1450
1535 1535 1536 1536 1536 1537 1537 1538 1539 1540 1541 1543 1544 1546 1547 1548 1549 1549 1550 1551 1552 1553 1554 1554 1554 1554 1555 1554 1554 1554 1554 1554 1554 1554 1554 1553 1553 1552 1552 1552 1552 1552 1551 1551 1550 1549 1548 1546 1545 1544 1542 1541 1539 1537 1535 1533 1532 1529 1527 1525 1523 1521 1519 1516 1513 1509 1504 1500 1498 1495 1492 1489 1486 1483 1480 1476 1472 1468 1463 1460 1457 1454 1452 1449 1447
1534 1534 1535 1535 1536 1537 1537 1538 1539 1540 1541 1543 1544 1546 1547 1548 1549 1550 1550 1551 1552 1553 1554 1554 1555 1555 1555 1555 1554 1554 1554 1554 1554 1554 1554 1553 1553 1553 1552 1552 1552 1552 1551 1550 1549 1548 1547 1546 1545 1544 1542 1541 1539 1537 1535 1533 1531 1529 1527 1525 1523 1520 1518 1516 1513 1509 1504 1499 1497 1494 1491 1487 1484 1481 1478 1474 1470 1467 1462 1458 1453 1450 1448 1446 1443
1532 1533 1534 1535 1536 1537 1538 1539 1540 1541 1542 1543 1544 1546 1547 1548 1549 1550 1551 1552 1553 1553 1554 1554 1555 1555 1555 1555 1554 1554 1554 1554 1554 1554 1554 1553 1553 1553 1552 1552 1552 1551 1551 1550 1549 1548 1547 1546 1545 1543 1542 1540 1539 1537 1535 1533 1530 1528 1526 1524 1522 1519 1517 1514 1512 1508 1504 1499 1495 1492 1489 1486 1482 1479 1476 1471 1467 1463 1460 1456 1451 1447 1443 1440 1438
1531 1531 1533 1535 1536 1537 1538 1540 1541 1542 1542 1543 1545 1546 1547 1549 1550 1551 1551 1552 1553 1553 1554 1555 1555 1555 1555 1555 1555 1554 1554 1554 1554 1554 1554 1553 1553 1553 1553 1552 1551 1551 1551 1550 1549 1548 1547 1546 1545 1543 1542 1540 1538 1536 1534 1532 1530 1528 1525 1523 1521 1518 1515 1513 1510 1507 1503 1499 1494 1490 1487 1484 1479 1476 1473 1470 1465 1460 1456 1452 1448 1444 1439 1435 1432
1530 1531 1533 1535 1536 1537 1539 1540 1541 1543 1543 1544 1545 1546 1548 1549 1550 1551 1552 1552 1553 1554 1554 1555 1555 1555 1555 1555 1555 1554 1554 1554 1554 1554 1554 1554 1553 1553 1553 1552 1551 1551 1550 1550 1549 1548 1548 1546 1545 1543 1542 1540 1538 1536 1533 1531 1529 1527 1525 1522 1520 1517 1514 1511 1508 1505 1501 1497 1493 1489 1485 1482 1478 1473 1470 1467 1463 1459 1454 1448 1443 1440 1436 1431 1427
1529 1531 1533 1535 1536 1537 1539 1541 1542 1543 1544 1545 1546 1547 1548 1549 1551 1551 1552 1553 1553 1554 1555 1555 1555 1555 1555 1555 1555 1555 1554 1554 1554 1554 1554 1554 1553 1553 1553 1552 1551 1551 1550 1550 1549 1548 1547 1546 1545 1543 1541 1540 1538 1535 1533 1531 1529 1527 1524 1522 1519 1516 1513 1510 1506 1503 1499 1495 1491 1487 1483 1479 1476 1471 1467 1464 1459 1455 1453 1447 1440 1436 1432 1428 1424
1529 1530 1532 1535 1536 1537 1539 1541 1542 1543 1545 1545 1546 1547 1548 1550 1551 1551 1552 1553 1553 1554 1555 1555 1555 1555 1555 1555 1555 1554 1554 1554 1554 1554 1554 1554 1553 1553 1553 1552 1551 1551 1550 1550 1549 1548 1547 1546 1544 1543 1541 1540 1538 1535 1533 1531 1529 1526 1524 1521 1519 1515 1512 1509 1505 1501 1498 1494 1490 1486 1481 1477 1473 1469 1465 1461 1458 1453 1449 1445 1439 1433 1429 1423 1419
1528 1529 1531 1534 1535 1537 1539 1541 1542 1543 1545 1546 1546 1547 1548 1549 1550 1551 1552 1553 1553 1554 1555 1555 1555 1555 1555 1555 1555 1554 1554 1554 1554 1554 1554 1553 1553 1553 1552 1552 1552 1551 1550 1550 1549 1548 1547 1546 1544 1543 1541 1540 1538 1535 1533 1531 1529 1527 1524 1521 1518 1515 1511 1508 1504 1500 1496 1492 1488 1484 1479 1475 1472 1468 1463 1460 1457 1451 1447 1442 1436 1430 1426 1418 1411
1527 1528 1530 1533 1534 1536 1538 1540 1542 1543 1545 1546 1546 1547 1548 1549 1550 1551 1552 1553 1554 1554 1555 1555 1555 1555 1555 1555 1555 1555 1555 1554 1554 1554 1553 1553 1553 1553 1552 1552 1551 1550 1549 1549 1549 1548 1547 1546 1544 1543 1541 1539 1537 1535 1533 1531 1529 1527 1524 1522 1519 1515 1511 1507 1503 1500 1496 1492 1488 1484 1479 1473 1470 1467 1463 1457 1453 1449 1445 1440 1434 1428 1423 1417 1408
1525 1527 1529 1532 1534 1536 1538 1540 1541 1543 1544 1545 1546 1547 1548 1549 1550 1551 1552 1553 1554 1555 1555 1556 1555 1555 1555 1555 1555 1555 1554 1554 1554 1553 1553 1553 1553 1553 1552 1552 1551 1550 1549 1549 1548 1547 1546 1545 1544 1542 1541 1539 1536 1534 1532 1530 1528 1525 1523 1521 1518 1515 1512 1508 1504 1500 1496 1491 1487 1483 1478 1473 1469 1465 1461 1456 1450 1445 1441 1436 1432 1426 1420 1416 1409
1524 1526 1528 1530 1532 1535 1537 1539 1541 1542 1544 1545 1546 1546 1548 1549 1550 1551 1552 1553 1554 1555 1555 1556 1555 1555 1556 1555 1555 1555 1554 1554 1554 1554 1553 1553 1553 1553 1552 1551 1550 1549 1549 1548 1547 1547 1546 1545 1543 1542 1540 1538 1536 1534 1531 1529 1526 1524 1522 1519 1516 1514 1511 1508 1505 1501 1496 1492 1486 1482 1478 1473 1468 1464 1460 1455 1448 1442 1436 1431 1427 1423 1417 1412 1407
1523 1525 1527 1529 1531 1533 1536 1538 1540 1542 1543 1544 1546 1546 1547 1549 1550 1551 1552 1553 1554 1555 1555 1556 1556 1556 1556 1556 1555 1555 1555 1554 1554 1554 1554 1553 1553 1552 1551 1551 1550 1549 1548 1548 1547 1546 1545 1544 1542 1541 1539 1537 1535 1533 1530 1527 1525 1522 1520 1517 1514 1512 1509 1505 1502 1499 1495 1491 1486 1481 1477 1473 1468 1462 1458 1454 1447 1441 1434 1427 1422 1417 1411 1407 1402
1522 1524 1526 1528 1530 1533 1535 1537 1539 1541 1542 1544 1545 1546 1547 1548 1550 1551 1552 1553 1554 1555 1555 1556 1556 1556 1556 1556 1556 1555 1555 1555 1554 1554 1554 1553 1552 1552 1551 1550 1549 1548 1548 1547 1547 1546 1545 1543 1542 1540 1539 1537 1534 1532 1529 1526 1524 1521 1518 1515 1512 1510 1507 1503 1500 1496 1493 1489 1485 1480 1476 1472 1467 1461 1455 1451 1445 1439 1433 1426 1419 1413 1405 1400 1396
1521 1523 1525 1527 1530 1532 1534 1537 1538 1540 1542 1543 1545 1546 1547 1548 1550 1551 1552 1553 1554 1555 1555 1556 1556 1556 1556 1556 1556 1556 1555 1555 1555 1554 1554 1553 1552 1551 1551 1550 1549 1548 1547 1546 1546 1545 1544 1543 1541 1540 1538 1536 1534 1532 1529 1526 1523 1519 1516 1513 1510 1508 1505 1502 1499 1495 1491 1487 1483 1479 1474 1469 1464 1459 1454 1448 1442 1435 1429 1422 1416 1409 1401 1394 1390
1520 1522 1524 1526 1529 1532 1534 1536 1538 1539 1541 1542 1544 1546 1547 1548 1549 1550 1552 1553 1554 1555 1556 1556 1556 1556 1556 1556 1557 1556 1556 1555 1555 1554 1553 1553 1552 1551 1550 1549 1548 1547 1546 1546 1545 1545 1544 1542 1541 1539 1537 1535 1533 1531 1528 1525 1522 1519 1515 1512 1509 1505 1502 1499 1496 1493 1489 1486 1482 1477 1472 1467 1462 1457 1451 1446 1440 1432 1424 1416 1410 1405 1398 1391 1385
1519 1521 1523 1526 1528 1531 1534 1536 1537 1539 1540 1542 1543 1545 1547 1548 1549 1550 1552 1553 1554 1555 1555 1556 1556 1556 1557 1557 1557 1557 1556 1555 1555 1554 1553 1552 1551 1551 1550 1549 1548 1547 1546 1545 1545 1544 1543 1542 1540 1539 1537 1535 1533 1530 1527 1524 1521 1518 1514 1511 1507 1503 1500 1496 1493 1489 1486 1483 1479 1475 1469 1464 1458 1453 1448 1442 1436 1430 1422 1414 1407 1401 1395 1389 1382
1517 1520 1522 1525 1528 1531 1533 1535 1537 1538 1540 1541 1543 1545 1546 1548 1549 1550 1552 1553 1554 1555 1555 1556 1556 1556 1556 1557 1557 1556 1556 1555 1554 1554 1553 1552 1551 1550 1549 1548 1547 1546 1545 1545 1544 1544 1543 1541 1540 1538 1536 1534 1532 1530 1527 1524 1520 1517 1514 1510 1506 1502 1499 1495 1491 1486 1482 1479 1475 1470 1465 1460 1455 1450 1445 1438 1432 1426 1420 1413 1405 1399 1392 1386 1380
1517 1519 1522 1525 1527 1530 1532 1534 1536 1538 1539 1541 1543 1544 1546 1548 1549 1550 1551 1553 1554 1554 1555 1556 1556 1556 1556 1556 1556 1556 1555 1555 1554 1553 1553 1552 1551 1550 1548 1548 1547 1545 1545 1544 1544 1543 1542 1541 1539 1538 1536 1534 1532 1529 1526 1523 1520 1517 1514 1510 1506 1502 1498 1495 1491 1486 1482 1477 1473 1468 1463 1458 1452 1447 1441 1434 1427 1422 1416 1410 1403 1397 1390 1382 1377
1516 1519 1522 1524 1527 1529 1531 1533 1535 1537 1539 1541 1542 1544 1546 1547 1548 1550 1551 1552 1553 1554 1555 1556 1556 1556 1556 1556 1556 1556 1555 1555 1554 1553 1553 1551 1550 1549 1548 1547 1546 1545 1545 1544 1544 1543 1541 1540 1539 1537 1535 1533 1531 1529 1526 1523 1520 1517 1514 1511 1507 1503 1499 1494 1490 1486 1482 1477 1472 1467 1461 1456 1450 1444 1437 1430 1424 1418 1412 1406 1400 1394 1388 1380 1373
1516 1519 1521 1524 1526 1528 1530 1533 1535 1537 1539 1540 1542 1544 1546 1547 1548 1550 1551 1552 1553 1554 1555 1555 1556 1556 1556 1556 1556 1555 1555 1555 1554 1553 1552 1551 1550 1549 1548 1547 1546 1545 1545 1544 1543 1542 1541 1540 1538 1537 1535 1533 1531 1528 1526 1523 1520 1517 1514 1511 1507 1503 1498 1494 1490 1485 1481 1476 1471 1465 1460 1454 1448 1441 1435 1428 1421 1415 1409 1403 1397 1391 1385 1379 1372
1516 1519 1521 1524 1526 1528 1530 1532 1534 1536 1538 1540 1542 1543 1545 1547 1548 1549 1551 1551 1553 1553 1554 1554 1555 1555 1555 1555 1555 1555 1555 1555 1554 1553 1552 1551 1551 1550 1548 1547 1546 1545 1545 1544 1543 1542 1541 1540 1538 1537 1535 1533 1531 1528 1525 1523 1520 1517 1514 1510 1506 1502 1498 1493 1489 1485 1480 1476 1470 1465 1459 1453 1446 1440 1433 1426 1419 1413 1407 1401 1394 1388 1382 1376 1370
1515 1518 1521 1523 1525 1528 1530 1532 1534 1536 1537 1539 1541 1543 1544 1546 1547 1549 1550 1551 1552 1553 1553 1553 1554 1554 1554 1555 1555 1555 1554 1554 1554 1553 1552 1552 1551 1550 1548 1547 1546 1546 1545 1544 1543 1542 1541 1540 1538 1536 1535 1533 1531 1528 1525 1522 1520 1516 1513 1509 1505 1501 1497 1492 1488 1484 1480 1475 1470 1465 1459 1453 1447 1440 1434 1427 1420 1413 1407 1400 1393 1387 1380 1374 1368
1514 1517 1519 1522 1524 1527 1529 1531 1533 1535 1536 1538 1540 1541 1543 1544 1546 1547 1549 1550 1551 1551 1552 1552 1552 1553 1553 1554 1554 1554 1554 1554 1554 1553 1552 1552 1551 1550 1548 1547 1547 1546 1545 1544 1543 1542 1541 1540 1538 1537 1535 1533 1530 1528 1525 1522 1519 1516 1512 1509 1505 1500 1496 1492 1488 1484 1480 1475 1471 1466 1460 1454 1448 1442 1436 1429 1421 1413 1406 1398 1391 1384 1378 1372 1366
1513 1516 1518 1521 1523 1525 1528 1530 1532 1534 1536 1538 1539 1541 1542 1543 1545 1546 1547 1549 1550 1550 1550 1551 1551 1552 1552 1553 1553 1553 1553 1553 1553 1553 1552 1551 1551 1550 1549 1548 1547 1546 1545 1544 1543 1542 1541 1540 1538 1536 1534 1532 1530 1527 1524 1522 1519 1516 1512 1509 1505 1500 1496 1492 1487 1484 1480 1476 1472 1467 1461 1456 1450 1444 1437 1430 1422 1414 1406 1398 1390 1383 1377 1371 1365
1512 1515 1517 1519 1522 1524 1526 1529 1531 1533 1535 1537 1539 1540 1542 1543 1545 1545 1546 1548 1548 1549 1549 1550 1550 1551 1551 1552 1552 1552 1552 1553 1553 1552 1552 1551 1550 1549 1549 1548 1547 1546 1545 1544 1543 1542 1541 1539 1538 1536 1534 1532 1529 1527 1524 1522 1519 1516 1512 1508 1505 1501 1497 1493 1489 1486 1482 1478 1473 1469 1463 1458 1451 1444 1438 1430 1423 1416 1409 1401 1393 1386 1379 1373 1366
1511 1513 1516 1518 1521 1523 1525 1528 1530 1532 1534 1536 1538 1539 1541 1543 1544 1545 1546 1547 1547 1548 1548 1549 1549 1550 1551 1551 1551 1551 1552 1552 1552 1551 1551 1550 1550 1549 1548 1548 1547 1546 1545 1544 1543 1542 1540 1539 1537 1536 1534 1531 1529 1526 1524 1521 1518 1515 1512 1509 1505 1502 1498 1494 1490 1487 1483 1479 1475 1470 1464 1458 1452 1445 1439 1432 1426 1419 1412 1405 1397 1390 1383 1376 1369
1510 1513 1515 1517 1520 1522 1524 1527 1529 1530 1533 1535 1537 1539 1541 1542 1543 1544 1545 1546 1547 1547 1547 1548 1549 1549 1550 1550 1551 1551 1551 1551 1551 1550 1550 1549 1549 1548 1548 1547 1546 1545 1544 1543 1542 1541 1540 1538 1537 1535 1533 1530 1528 1525 1522 1520 1518 1515 1512 1509 1505 1502 1498 1494 1490 1486 1483 1480 1475 1471 1465 1460 1454 1448 1441 1434 1428 1422 1415 1408 1401 1394 1387 1380 1374
1509 1512 1514 1516 1519 1521 1523 1526 1528 1530 1532 1534 1536 1538 1540 1541 1543 1544 1545 1545 1546 1546 1547 1548 1548 1549 1549 1550 1550 1550 1550 1550 1550 1549 1549 1549 1548 1548 1547 1547 1546 1545 1544 1543 1542 1541 1539 1538 1536 1534 1532 1530 1527 1525 1522 1519 1517 1514 1511 1508 1505 1501 1498 1494 1490 1487 1484 1481 1477 1472 1467 1462 1456 1450 1444 1437 1431 1425 1419 1412 1406 1399 1392 1385 1380
1507 1510 1512 1515 1517 1520 1522 1525 1527 1529 1531 1533 1535 1536 1538 1540 1541 1543 1544 1545 1545 1546 1546 1547 1548 1548 1548 1549 1549 1549 1549 1549 1549 1548 1548 1548 1547 1547 1546 1546 1545 1544 1543 1542 1541 1540 1539 1537 1536 1534 1532 1530 1527 1525 1522 1519 1517 1514 1511 1508 1505 1502 1498 1495 1491 1488 1484 1481 1478 1474 1469 1464 1459 1453 1447 1441 1435 1429 1422 1416 1410 1403 1397 1392 1386
1505 1508 1511 1513 1516 1519 1522 1524 1526 1528 1530 1531 1533 1535 1536 1538 1539 1541 1542 1543 1544 1544 1545 1546 1546 1547 1547 1548 1548 1548 1548 1548 1548 1547 1547 1547 1546 1546 1545 1545 1544 1543 1542 1541 1541 1540 1538 1537 1535 1533 1531 1529 1527 1525 1522 1520 1517 1514 1511 1508 1505 1502 1499 1496 1492 1489 1485 1482 1479 1475 1470 1466 1462 1456 1451 1445 1439 1433 1427 1420 1414 1408 1402 1397 1391
1504 1506 1509 1512 1515 1518 1521 1523 1524 1526 1528 1529 1531 1533 1534 1536 1537 1538 1540 1541 1542 1543 1543 1544 1545 1546 1546 1547 1547 1547 1547 1546 1546 1546 1546 1545 1545 1545 1544 1544 1543 1542 1542 1541 1540 1539 1538 1536 1535 1533 1531 1529 1527 1525 1522 1520 1517 1514 1512 1509 1506 1503 1500 1497 1494 1491 1487 1483 1480 1476 1473 1468 1464 1459 1454 1449 1443 1438 1432 1426 1420 1414 1409 1403 1397
1503 1506 1508 1511 1514 1516 1519 1521 1523 1525 1527 1528 1530 1531 1533 1534 1536 1537 1538 1539 1540 1541 1542 1542 1543 1544 1545 1545 1545 1545 1545 1545 1545 1545 1545 1544 1544 1544 1543 1543 1543 1542 1541 1540 1539 1538 1537 1536 1534 1532 1531 1529 1527 1525 1522 1520 1517 1515 1512 1509 1506 1504 1501 1498 1495 1491 1488 1485 1481 1478 1475 1471 1467 1462 1457 1452 1447 1442 1437 1432 1426 1420 1415 1410 1405
1503 1505 1507 1510 1512 1515 1517 1519 1521 1523 1525 1527 1529 1531 1532 1534 1535 1536 1537 1538 1539 1539 1540 1541 1542 1542 1543 1544 1544 1544 1544 1544 1544 1544 1543 1543 1543 1543 1543 1542 1542 1541 1540 1540 1539 1538 1537 1535 1533 1532 1530 1529 1527 1525 1522 1519 1517 1514 1512 1509 1507 1504 1501 1498 1495 1492 1489 1486 1482 1479 1476 1473 1469 1465 1461 1457 1452 1447 1442 1437 1432 1427 1422 1417 1412
1502 1504 1507 1509 1512 1514 1516 1518 1520 1522 1524 1527 1529 1530 1532 1533 1534 1535 1536 1537 1538 1538 1539 1540 1540 1541 1542 1542 1542 1543 1543 1543 1543 1543 1542 1542 1542 1542 1542 1541 1541 1540 1540 1539 1538 1537 1536 1534 1533 1531 1530 1528 1526 1524 1522 1519 1517 1514 1512 1509 1507 1504 1501 1498 1495 1493 1490 1487 1484 1481 1478 1475 1472 1468 1464 1461 1456 1452 1447 1443 1438 1434 1429 1424 1419
1501 1503 1506 1509 1511 1513 1515 1517 1519 1521 1524 1526 1528 1530 1531 1532 1533 1533 1534 1535 1536 1537 1538 1538 1539 1539 1540 1541 1541 1541 1542 1542 1542 1541 1541 1541 1541 1541 1541 1540 1539 1539 1538 1538 1537 1536 1535 1533 1532 1530 1529 1528 1526 1524 1521 1519 1516 1514 1512 1509 1507 1504 1502 1499 1496 1494 1491 1488 1485 1482 1479 1476 1474 1471 1467 1464 1460 1456 1452 1448 1444 1439 1435 1431 1426
1500 1502 1505 1508 1510 1512 1514 1516 1519 1521 1524 1526 1527 1528 1529 1530 1531 1532 1533 1534 1535 1536 1536 1537 1537 1538 1538 1539 1540 1540 1540 1540 1540 1540 1540 1540 1540 1539 1539 1539 1538 1537 1537 1536 1535 1534 1533 1532 1531 1529 1528 1527 1526 1523 1521 1519 1516 1514 1511 1509 1507 1505 1502 1500 1497 1494 1492 1489 1486 1483 1481 1478 1475 1473 1470 1467 1464 1460 1456 1452 1448 1444 1440 1436 1432
1499 1501 1504 1506 1509 1511 1513 1515 1518 1520 1522 1523 1525 1526 1527 1528 1529 1530 1531 1532 1533 1534 1535 1535 1536 1536 1537 1538 1538 1539 1539 1538 1538 1538 1538 1538 1538 1538 1538 1537 1537 1536 1535 1534 1534 1533 1532 1531 1530 1528 1527 1526 1525 1523 1521 1518 1516 1513 1511 1509 1507 1505 1502 1500 1497 1495 1492 1490 1487 1485 1482 1479 1477 1474 1472 1470 1467 1464 1460 1457 1453 1449 1445 1442 1438
1497 1500 1503 1505 1507 1509 1512 1514 1516 1518 1520 1521 1523 1524 1525 1526 1527 1528 1529 1530 1531 1532 1533 1534 1534 1535 1536 1536 1537 1537 1537 1537 1537 1537 1537 1537 1537 1537 1536 1536 1535 1534 1533 1533 1532 1531 1531 1530 1528 1527 1527 1525 1524 1522 1520 1518 1515 1513 1511 1509 1507 1504 1502 1500 1497 1495 1493 1490 1488 1486 1483 1481 1478 1476 1474 1472 1469 1467 1464 1461 1457 1454 1451 1447 1444
1495 1499 1501 1503 1506 1508 1510 1512 1514 1516 1518 1519 1521 1522 1523 1524 1525 1527 1527 1528 1529 1530 1531 1531 1532 1533 1534 1534 1535 1535 1535 1535 1535 1535 1535 1535 1535 1535 1535 1534 1534 1533 1532 1531 1530 1530 1529 1528 1527 1526 1525 1524 1523 1521 1519 1517 1515 1513 1511 1509 1506 1504 1502 1500 1497 1496 1493 1491 1489 1486 1484 1482 1479 1477 1475 1473 1471 1469 1467 1464 1461 1458 1455 1452 1449
1494 1497 1499 1502 1504 1506 1508 1510 1512 1514 1516 1518 1519 1520 1521 1522 1524 1525 1525 1526 1527 1528 1529 1529 1530 1531 1531 1532 1533 1533 1533 1532 1533 1533 1533 1533 1533 1533 1533 1532 1532 1531 1530 1529 1529 1528 1528 1527 1526 1525 1524 1523 1522 1520 1519 1517 1515 1513 1511 1509 1506 1504 1502 1500 1497 1496 1494 1491 1489 1487 1485 1483 1481 1479 1477 1475 1473 1471 1469 1466 1464 1461 1458 1455 1453
1492 1494 1497 1500 1502 1504 1506 1508 1510 1512 1514 1515 1517 1518 1520 1521 1522 1523 1523 1524 1525 1525 1526 1527 1528 1528 1529 1530 1530 1530 1530 1530 1531 1531 1531 1531 1531 1531 1531 1530 1530 1529 1528 1528 1527 1527 1526 1525 1524 1524 1523 1522 1521 1519 1518 1516 1514 1512 1510 1508 1506 1504 1502 1500 1498 1496 1494 1492 1490 1488 1486 1484 1482 1480 1478 1476 1474 1472 1470 1468 1466 1464 1461 1458 1456
1490 1493 1495 1498 1500 1502 1504 1507 1508 1510 1512 1513 1515 1516 1518 1519 1520 1521 1521 1522 1523 1523 1524 1525 1526 1526 1527 1528 1528 1528 1528 1528 1528 1528 1529 1529 1529 1528 1528 1528 1528 1527 1526 1526 1526 1525 1524 1523 1523 1522 1521 1520 1519 1518 1517 1515 1514 1512 1510 1508 1506 1504 1502 1500 1498 1496 1494 1492 1490 1488 1486 1484 1482 1481 1479 1477 1475 1473 1471 1470 1468 1466 1464 1461 1459
1488 1491 1493 1496 1498 1500 1503 1505 1506 1508 1510 1512 1513 1514 1515 1517 1518 1519 1519 1520 1521 1521 1522 1523 1523 1524 1525 1525 1526 1525 1525 1526 1526 1526 1526 1526 1526 1526 1526 1526 1525 1525 1525 1524 1524 1523 1522 1521 1521 1520 1519 1519 1518 1516 1515 1514 1512 1511 1509 1508 1506 1504 1502 1500 1498 1496 1494 1492 1490 1488 1486 1484 1482 1481 1479 1477 1476 1474 1472 1471 1470 1468 1466 1464 1462
1486 1489 1491 1494 1496 1499 1501 1503 1505 1506 1508 1509 1511 1512 1513 1514 1515 1516 1517 1518 1518 1519 1520 1520 1521 1522 1522 1523 1523 1523 1523 1523 1523 1523 1524 1524 1524 1524 1524 1523 1523 1523 1523 1522 1522 1521 1520 1519 1519 1518 1517 1517 1516 1515 1514 1512 1511 1510 1508 1507 1505 1504 1502 1500 1498 1496 1494 1492 1490 1488 1486 1484 1483 1481 1480 1478 1476 1475 1473 1472 1471 1469 1468 1466 1464
1485 1487 1490 1492 1495 1498 1499 1501 1503 1504 1506 1507 1508 1509 1511 1512 1513 1514 1515 1515 1516 1517 1517 1518 1519 1519 1520 1520 1521 1521 1521 1521 1521 1521 1521 1521 1521 1521 1521 1521 1520 1520 1520 1520 1519 1519 1518 1517 1516 1516 1515 1515 1514 1513 1512 1510 1509 1508 1507 1505 1504 1503 1501 1499 1498 1496 1494 1491 1490 1488 1486 1485 1483 1481 1480 1478 1477 1475 1474 1473 1471 1470 1469 1468 1466
1483 1486 1489 1491 1494 1496 1498 1499 1501 1502 1504 1505 1506 1507 1508 1509 1510 1511 1512 1513 1513 1514 1515 1515 1516 1517 1517 1517 1518 1518 1518 1518 1518 1518 1518 1518 1518 1518 1518 1518 1517 1517 1517 1517 1517 1516 1515 1515 1514 1513 1513 1512 1511 1511 1509 1508 1507 1506 1505 1504 1503 1501 1500 1498 1497 1495 1493 1491 1489 1488 1486 1485 1483 1481 1480 1478 1477 1475 1474 1473 1472 1471 1470 1468 1467
1482 1484 1487 1490 1492 1494 1495 1497 1499 1500 1501 1503 1504 1505 1506 1507 1508 1508 1509 1510 1511 1511 1512 1513 1513 1514 1514 1515 1515 1515 1515 1515 1515 1515 1515 1515 1515 1515 1515 1515 1515 1514 1514 1514 1513 1513 1512 1512 1511 1511 1510 1509 1509 1508 1507 1506 1505 1504 1503 1502 1501 1500 1498 1497 1495 1494 1493 1491 1489 1487 1486 1484 1483 1481 1480 1478 1477 1475 1474 1473 1472 1471 1470 1469 1468
1481 1483 1486 1488 1490 1492 1494 1495 1496 1498 1500 1501 1502 1503 1503 1504 1505 1506 1507 1507 1508 1508 1509 1510 1511 1511 1512 1512 1512 1512 1512 1512 1512 1512 1512 1512 1512 1512 1512 1512 1512 1511 1511 1511 1510 1510 1509 1509 1508 1508 1507 1507 1506 1505 1505 1504 1503 1502 1501 1500 1499 1497 1496 1495 1494 1493 1492 1490 1489 1487 1485 1484 1483 1481 1480 1478 1477 1475 1474 1473 1472 1471 1470 1469 1468
1479 1482 1484 1486 1488 1490 1491 1493 1494 1496 1497 1498 1499 1500 1501 1502 1503 1503 1504 1505 1505 1506 1506 1507 1508 1508 1509 1509 1509 1509 1509 1509 1509 1509 1509 1509 1509 1509 1509 1508 1508 1508 1508 1507 1507 1506 1506 1505 1505 1505 1504 1504 1503 1503 1502 1501 1500 1499 1498 1497 1496 1495 1494 1493 1492 1491 1490 1489 1488 1486 1485 1483 1482 1481 1479 1478 1476 1475 1474 1473 1472 1471 1470 1469 1468